GW1999 Weather Reports


time (UTC)temp
C
wind
direction
speed
KPH
gust
KPH
rain 1hr
cm
rain 24hr
cm
rain mn
cm
humidity
%
barometer
mb
20260509000018 18 194 0.0 4.8 0.00 0.00 0.00 59 1014.5
20260508234542 18 183 1.6 11.3 0.00 0.00 0.00 58 1014.4
20260508233019 18 161 3.2 11.3 0.00 0.00 0.00 58 1014.3
20260508231540 18 178 3.2 9.7 0.00 0.00 0.00 58 1014.3
20260508230056 18 181 1.6 8.0 0.00 0.00 0.00 57 1014.3
20260508224548 19 204 1.6 9.7 0.00 0.00 0.00 55 1014.5
20260508223055 20 158 1.6 8.0 0.00 0.00 0.00 55 1014.4
20260508221538 20 195 0.0 3.2 0.00 0.00 0.00 55 1014.4
20260508220056 20 193 0.0 8.0 0.00 0.00 0.00 55 1014.1
20260508214519 20 191 1.6 11.3 0.00 0.00 0.00 53 1014.5
20260508213056 20 245 4.8 14.5 0.00 0.00 0.00 53 1014.3
20260508211522 21 169 0.0 12.9 0.00 0.00 0.00 51 1014.4
20260508210059 21 177 3.2 11.3 0.00 0.00 0.00 51 1014.4
20260508204535 20 146 0.0 6.4 0.00 0.00 0.00 55 1014.3
20260508203054 20 86 0.0 9.7 0.00 0.00 0.00 55 1014.6
20260508201533 21 180 3.2 9.7 0.00 0.00 0.00 53 1014.7
20260508200050 21 259 0.0 3.2 0.00 0.38 0.00 48 1014.8
20260508194512 21 172 1.6 8.0 0.00 0.38 0.00 50 1015.2
20260508193054 22 234 4.8 14.5 0.00 0.38 0.00 48 1015.3
20260508191520 22 147 0.0 8.0 0.00 0.38 0.00 47 1015.5
20260508190036 21 160 1.6 4.8 0.00 0.38 0.00 47 1015.8
20260508184522 21 193 1.6 11.3 0.00 0.38 0.00 51 1016.2
20260508183035 22 189 1.6 8.0 0.00 0.38 0.00 48 1016.3
20260508181518 20 229 0.0 4.8 0.00 0.38 0.00 53 1016.6
20260508180041 21 149 0.0 4.8 0.00 0.38 0.00 56 1016.7
20260508174559 20 105 0.0 4.8 0.00 0.38 0.00 52 1017.0
20260508173036 21 256 1.6 9.7 0.00 0.38 0.00 46 1017.0
20260508171555 20 274 0.0 11.3 0.00 0.38 0.00 50 1017.3
20260508170016 20 139 0.0 6.4 0.00 0.38 0.00 52 1017.4
20260508164555 21 210 3.2 8.0 0.00 0.38 0.00 48 1017.6
20260508163017 21 120 1.6 6.4 0.00 0.38 0.00 48 1017.9
20260508161534 21 122 1.6 6.4 0.00 0.38 0.00 52 1018.0
20260508160050 20 116 1.6 4.8 0.00 0.38 0.00 48 1018.3
20260508154531 19 121 0.0 3.2 0.00 0.38 0.00 52 1018.5
20260508153048 18 258 3.2 6.4 0.00 0.38 0.00 49 1018.5
20260508151531 19 176 4.8 9.7 0.00 0.38 0.00 59 1018.6
20260508150056 18 141 0.0 8.0 0.00 0.43 0.00 62 1018.5
20260508144522 19 15 3.2 6.4 0.00 0.43 0.00 54 1018.4
20260508143101 18 224 0.0 6.4 0.00 0.43 0.00 56 1018.5
20260508141525 18 65 1.6 6.4 0.00 0.43 0.00 53 1018.7
20260508140052 17 37 0.0 3.2 0.00 0.61 0.00 68 1018.8
20260508134520 16 145 0.0 3.2 0.00 0.61 0.00 80 1018.9
20260508133036 16 8 0.0 4.8 0.00 0.61 0.00 80 1018.8
20260508131516 15 44 1.6 6.4 0.00 0.61 0.00 78 1018.8
20260508130036 13 330 1.6 4.8 0.00 0.64 0.00 80 1018.6
20260508124553 11 1 1.6 4.8 0.00 0.64 0.00 85 1018.5
20260508123036 11 337 1.6 6.4 0.00 0.64 0.00 87 1018.4
20260508121556 10 264 0.0 0.0 0.00 0.64 0.00 93 1018.3
20260508120024 9 324 0.0 0.0 0.00 0.89 0.00 93 1018.0
20260508114559 9 311 0.0 1.6 0.00 0.89 0.00 93 1017.8
20260508114501 9 311 0.0 1.6 0.00 0.89 0.00 93 1017.7
20260508113020 8 304 0.0 3.2 0.00 0.89 0.00 93 1017.5
20260508111539 8 85 0.0 3.2 0.00 0.89 0.00 93 1017.3
20260508110017 8 208 0.0 0.0 0.00 0.97 0.00 93 1017.0
20260508104541 8 5 0.0 0.0 0.00 0.97 0.00 93 1016.8
20260508103103 8 5 0.0 0.0 0.00 0.97 0.00 93 1016.4
20260508103002 8 5 0.0 0.0 0.00 0.97 0.00 93 1016.4
20260508101547 8 5 0.0 0.0 0.00 0.97 0.00 92 1016.1
20260508100028 8 5 0.0 1.6 0.00 0.97 0.00 92 1015.8
20260508094504 8 20 0.0 3.2 0.00 0.97 0.00 92 1015.6
20260508093045 8 14 0.0 3.2 0.00 0.97 0.00 92 1015.6
20260508091513 8 8 0.0 0.0 0.00 0.97 0.00 93 1015.6
20260508090039 8 8 0.0 0.0 0.00 1.04 0.00 93 1015.6
20260508084519 8 15 0.0 3.2 0.00 1.04 0.00 92 1015.3
20260508083048 8 4 0.0 3.2 0.00 1.04 0.00 92 1015.4
20260508081556 9 4 0.0 0.0 0.00 1.04 0.00 91 1015.2
20260508080054 9 4 0.0 0.0 0.00 1.42 0.00 92 1015.0
20260508074614 10 4 0.0 0.0 0.00 1.42 0.00 92 1015.0
20260508073020 10 4 0.0 0.0 0.00 1.42 0.00 92 1014.9
20260508071600 10 4 0.0 0.0 0.00 1.42 0.00 92 1015.0
20260508071502 10 4 0.0 0.0 0.00 1.42 0.00 92 1015.0
20260508070022 10 4 0.0 0.0 0.00 1.93 0.00 91 1014.8
20260508064558 10 4 0.0 0.0 0.00 1.93 0.00 91 1014.7
20260508063019 10 4 0.0 0.0 0.00 1.93 0.00 91 1014.7
20260508061615 10 4 0.0 0.0 0.00 1.93 0.00 91 1014.7
20260508060041 11 4 0.0 0.0 0.00 2.16 0.00 91 1014.8
20260508054533 11 4 0.0 0.0 0.00 2.16 0.00 90 1014.8
20260508053053 11 4 0.0 0.0 0.00 2.16 0.00 90 1014.8
20260508051521 11 4 0.0 0.0 0.00 2.16 0.00 89 1014.7
20260508050051 11 4 0.0 0.0 0.00 2.21 0.00 87 1014.5
20260508044558 12 4 0.0 0.0 0.00 2.21 0.00 85 1014.5
20260508043019 12 4 0.0 0.0 0.00 2.21 0.00 85 1014.3
20260508041602 12 4 0.0 0.0 0.00 2.21 0.00 82 1014.3
20260508040036 13 4 0.0 0.0 0.00 2.24 2.21 81 1014.3
20260508034558 13 4 0.0 0.0 0.00 2.24 2.21 78 1014.3
20260508034502 13 4 0.0 0.0 0.00 2.24 2.21 78 1014.3
20260508033018 13 4 0.0 0.0 0.00 2.24 2.21 77 1014.4
20260508031543 14 4 0.0 0.0 0.00 2.24 2.21 74 1014.1
20260508030058 15 4 0.0 0.0 0.00 2.44 2.21 72 1014.1
20260508024554 15 4 0.0 3.2 0.00 2.44 2.21 68 1013.9
20260508023012 16 35 0.0 3.2 0.00 2.44 2.21 68 1013.7
20260508021544 16 49 1.6 4.8 0.00 2.44 2.21 67 1013.4
20260508020004 16 21 1.6 6.4 0.00 3.17 2.21 66 1013.2
20260508014545 17 4 3.2 11.3 0.00 3.17 2.21 57 1012.9
20260508013057 17 359 1.6 11.3 0.00 3.17 2.21 59 1012.7
20260508011524 17 17 9.7 16.1 0.00 3.17 2.21 56 1012.1
20260508010058 18 353 4.8 9.7 0.00 4.24 2.21 60 1012.1
20260508004530 18 18 8.0 16.1 0.00 4.24 2.21 59 1011.5
20260508003058 18 339 3.2 14.5 0.00 4.24 2.21 61 1011.2
20260508001524 19 357 6.4 14.5 0.00 4.24 2.21 61 1010.8